Regional Weather Roundup
Issued by NWS

Home | Current Version | Previous Version | Text Only | Print | Product List | Glossary Off
Versions: 1 2 3 4 5 6 7 8 9 10 11 12 13 14 15 16 17 18 19 20 21 22 23 24 25 26 27 28 29 30 31 32 33 34 35 36 37 38 39 40 41 42 43 44 45 46 47 48 49 50

000
ASUS43 KLMK 230802
RWRKY
KENTUCKY REGIONAL WEATHER ROUNDUP
NATIONAL WEATHER SERVICE LOUISVILLE KY
400 AM EDT SAT JUL 23 2016

NOTE "FAIR" INDICATES FEW OR NO CLOUDS BELOW 12,000 FEET
WITH NO SIGNIFICANT WEATHER AND/OR OBSTRUCTIONS TO VISIBILITY.

KYZ001>023-026-027-061>063-070>075-230900-
WESTERN AND SOUTH CENTRAL KENTUCKY

CITY           SKY/WX    TMP DP  RH WIND       PRES   REMARKS
PADUCAH        CLOUDY    76  73  91 CALM      29.98S
HENDERSON      MOCLDY    73  72  94 CALM      29.99R
OWENSBORO      MOCLDY    75  74  97 CALM      30.01R
HOPKINSVILLE   MOCLDY    76  73  91 SE7       30.00S
BOWLING GREEN  CLEAR     75  73  93 CALM      30.01S
GLASGOW        NOT AVBL
$$

KYZ024-025-028>034-038-045-046-053-230900-
NORTH CENTRAL KENTUCKY

CITY           SKY/WX    TMP DP  RH WIND       PRES   REMARKS
LOUISVILLE/SDF PTCLDY    75  71  87 SE3       30.01S
LOUISVILLE/LOU CLEAR     75  70  84 CALM      30.02S
FORT KNOX      CLEAR     71  71 100 NE2       30.00S
$$

KYZ035>037-039>044-047>052-055>060-089>105-230900-
NORTHEAST KENTUCKY

CITY           SKY/WX    TMP DP  RH WIND       PRES   REMARKS
LEXINGTON      CLEAR     71  68  90 SE3       30.04F
COVINGTON      CLEAR     71  71 100 CALM      30.03S
FRANKFORT      CLEAR     72  69  90 CALM      30.02F
$$

KYZ054-064>069-076>088-106>120-230900-
SOUTHEAST KENTUCKY

CITY           SKY/WX    TMP DP  RH WIND       PRES   REMARKS
JACKSON        CLOUDY    70  68  93 CALM      30.07F
LONDON         CLOUDY    73  69  87 CALM      30.05F
SOMERSET       MOCLDY    70  70 100 CALM      30.05F FOG
MIDDLESBORO    CLOUDY    74  72  91 CALM      30.05F
MONTICELLO     CLOUDY   N/A N/A N/A N12       30.05F HAZE
$$





USA.gov is the U.S. government's official web portal to all federal, state and local government web resources and services.